Regional Weather Roundup
Issued by NWS Bismarck, ND

Current Version | Previous Version | Text Only | Print | Product List | Glossary On
Versions: 1 2 3 4 5 6 7 8 9 10 11 12 13 14 15 16 17 18 19 20 21 22 23 24 25 26 27 28 29 30 31 32 33 34 35 36 37 38 39 40 41 42 43 44 45 46 47 48 49 50
000
ASUS43 KBIS 241210
RWRBIS

NWR BROADCAST TEXT
NATIONAL WEATHER SERVICE BISMARCK ND
700 AM CDT SAT OCT 24 2020

NOTE: "FAIR" INDICATES FEW OR NO CLOUDS BELOW 12,000 FEET WITH NO
SIGNIFICANT WEATHER AND/OR OBSTRUCTIONS TO VISIBILITY.


CITY           SKY/WX    TMP DP  RH WIND       PRES   REMARKS
WILLISTON      FAIR      11   6  81 NE9       30.26R WCI  -2
MINOT          CLOUDY    18  13  80 NW5       30.30S WCI  11
MINOT AFB      CLOUDY    17  13  86 N5        30.30R WCI  10
BISMARCK       CLOUDY    19  15  84 NE5       30.30S WCI  12
DICKINSON      CLOUDY    14   9  80 E10       30.17S WCI   1
GARRISON         N/A     18  12  77 VRB3      30.28R
HETTINGER ARPT LGT SNOW  17  15  92 E17       30.14S FOG     WCI   1
JAMESTOWN      CLOUDY    16  11  80 CALM      30.30R
CARRINGTON     CLOUDY    19  14  79 W5        30.32R WCI  13
HAZEN          CLOUDY    14  12  92 E3        30.30S
MANDAN         FLURRIES  18  16  93 CALM      30.28R
OAKES          CLOUDY    16  16 100 S5        30.33R WCI   9
RUGBY          CLOUDY    18  16  93 N6        30.31R WCI   9
STANLEY        CLOUDY    14  12  92 N3        30.27S
TIOGA          PTSUNNY    9   7  92 E6        30.28S WCI  -1
WATFORD CITY   FAIR       9   5  85 CALM      30.27S
$$

CITY           SKY/WX    TMP DP  RH WIND       PRES   REMARKS
GRAND FORKS    PTCLDY    17  12  80 W5        30.34R WCI  10
GRAND FORKS AF PTCLDY    14  13  95 N5        30.34R WCI   7
DEVILS LAKE    MOCLDY    15  12  88 NW5       30.32R WCI   8
FARGO            N/A    N/A N/A N/A MISG      30.34S
CANDO          CLOUDY    18  18 100 W3        30.33S
CAVALIER       CLOUDY    16  12  86 W6        30.34R WCI   7
GRAFTON        FAIR      16  14  93 NW7       30.36R WCI   6
GWINNER        CLOUDY    16  16 100 W3        30.33S
ROLLA          FAIR      10   9  92 NW8       30.30R WCI  -1
WALHALLA       CLOUDY    16  16 100 CALM      30.34R
$$

CITY           SKY/WX    TMP DP  RH WIND       PRES   REMARKS
ABERDEEN       CLOUDY    18  14  84 CALM      30.34R
MOBRIDGE       CLOUDY    22  15  75 E12       30.23S WCI  10
RAPID CITY     FLURRIES  21  19  92 SE13      29.96S WCI   9
GLASGOW        MOCLDY    14   6  70 NE15      30.25R WCI  -1
SIDNEY         MOCLDY    11   7  84 NE8       30.27S WCI  -1
WOLF POINT     PTCLDY     7   3  84 E7        30.28R WCI  -5
GLENDIVE       CLOUDY    14  11  87 NE18      30.19R WCI  -3
MILES CITY     LGT SNOW  18  14  84 NE18      30.09R FOG     WCI   2
BAKER          LGT SNOW  17  12  80 E17G24    30.10R WCI   1
$$

CITY           SKY/WX    TMP DP  RH WIND       PRES   REMARKS
BILLINGS       LGT SNOW  20  17  88 NE15      29.96R BLWGSNOWWCI   6
GREAT FALLS    LGT SNOW  14  10  84 N16       30.09R VSB 1   WCI  -2
REGINA         CLOUDY    18  10  73 N7        30.35R WCI   8
ESTEVAN        CLOUDY    18  14  86 N9        30.30S WCI   6
$$




USA.gov is the U.S. government's official web portal to all federal, state and local government web resources and services.